THOR 5

Last updated on Tue Oct 21 2025 00:02:50 GMT+0000 (Coordinated Universal Time)

1 32487U 08006A 25293.62286892 -.00000005 00000+0 00000+0 0 9996 2 32487 0.0095 212.7584 0002409 5.1788 34.8858 1.00272088 64917
UTC large
Height (km)
Speed (km/s)
/
Latitude / Longitude
Inclination (degrees)
Orbital Period (minutes)
Azimuth
Elevation
Range (km)
Doppler Factor

Next 0 passes for location: London (51.5072 / 0.1276)

Sorry there are no passes over London.